Siemreap, Cambodia

6:08 PM ICT on February 26, 2017 (GMT +0700)
Siem Reap

Weather History for VDSR - November, 2012

Change the Weather History Date:

Sunday, November 11, 2012

  Actual Average Record
Temperature  
Mean Temperature 86 °F -  
Max Temperature 91 °F - - ()
Min Temperature 82 °F - - ()
Cooling Degree Days 22    
Growing Degree Days 36 (Base 50)    
Moisture  
Dew Point 75 °F    
Average Humidity 69    
Maximum Humidity 89    
Minimum Humidity 52    
Precipitation  
Precipitation 0.00 in - - ()
Sea Level Pressure  
Sea Level Pressure 29.79 in    
Wind  
Wind Speed 5 mph ()    
Max Wind Speed 9 mph    
Max Gust Speed -    
Visibility 5.9 miles    
Events      
T = Trace of Precipitation, MM = Missing Value Source: Averaged Metar Reports

Daily Weather History Graph

Daily Weather History Graph

Search for Another Location

Airport or City:

Trip Planner

Search our weather history database for the weather conditions in past years. The results will help you decide how hot, cold, wet, or windy it might be!

Date:

Astronomy

Nov. 11, 2012 Rise Set
Actual Time 6:02 AM ICT 5:34 PM ICT
Civil Twilight 5:39 AM ICT 5:57 PM ICT
Nautical Twilight 5:14 AM ICT 6:22 PM ICT
Astronomical Twilight 4:48 AM ICT 6:48 PM ICT
Moon 3:06 AM ICT (11/11) 3:16 PM ICT (11/11)
Length of Visible Light 12h 17m
Length of Day
11h 32m
Waning Crescent, 11% of the Moon is Illuminated
Nov 11
Waning Crescent
Nov 14
New
Nov 20
First Quarter
Nov 28
Full
Dec 6
Last Quarter

Hourly Weather History & Observations

Time (ICT) Temp. Heat Index Dew Point Humidity Pressure Visibility Wind Dir Wind Speed Gust Speed Precip Events Conditions
7:30 AM 82.4 °F 90.9 °F 77.0 °F 84% 29.83 in 5.6 mi East 5.8 mph - N/A   Scattered Clouds
8:00 AM 82.4 °F 90.9 °F 77.0 °F 84% 29.83 in 5.6 mi East 5.8 mph - N/A   Scattered Clouds
8:30 AM 84.2 °F 94.1 °F 77.0 °F 79% 29.86 in 5.6 mi East 5.8 mph - N/A   Scattered Clouds
9:00 AM 86.0 °F 95.1 °F 75.2 °F 70% 29.86 in 5.6 mi ESE 8.1 mph - N/A   Scattered Clouds
9:30 AM 86.0 °F 93.4 °F 73.4 °F 66% 29.86 in 6.2 mi ESE 9.2 mph - N/A   Scattered Clouds
10:00 AM 87.8 °F 95.6 °F 73.4 °F 62% 29.86 in 6.2 mi ESE 9.2 mph - N/A   Scattered Clouds
10:30 AM 87.8 °F 95.6 °F 73.4 °F 62% 29.86 in 6.2 mi ESE 8.1 mph - N/A   Scattered Clouds
11:00 AM 87.8 °F 95.6 °F 73.4 °F 62% 29.83 in 6.2 mi East 5.8 mph - N/A   Scattered Clouds
11:30 AM 89.6 °F 98.2 °F 73.4 °F 59% 29.83 in 6.2 mi East 6.9 mph - N/A   Scattered Clouds
12:00 PM 89.6 °F 98.2 °F 73.4 °F 59% 29.80 in 6.2 mi East 8.1 mph - N/A   Scattered Clouds
12:30 PM 89.6 °F 96.2 °F 71.6 °F 55% 29.80 in 6.2 mi East 8.1 mph - N/A   Scattered Clouds
1:00 PM 91.4 °F 98.4 °F 71.6 °F 52% 29.77 in 6.2 mi East 8.1 mph - N/A   Scattered Clouds
1:30 PM 91.4 °F 100.1 °F 73.4 °F 55% 29.74 in 6.2 mi ESE 5.8 mph - N/A   Scattered Clouds
2:00 PM 91.4 °F 100.1 °F 73.4 °F 55% 29.74 in 6.2 mi ESE 5.8 mph - N/A   Scattered Clouds
2:30 PM 91.4 °F 100.1 °F 73.4 °F 55% 29.71 in 6.2 mi ESE 5.8 mph - N/A   Scattered Clouds
3:00 PM 91.4 °F 100.1 °F 73.4 °F 55% 29.71 in 6.2 mi East 6.9 mph - N/A   Scattered Clouds
3:30 PM 91.4 °F 100.1 °F 73.4 °F 55% 29.71 in 6.2 mi East 6.9 mph - N/A   Scattered Clouds
4:00 PM 91.4 °F 100.1 °F 73.4 °F 55% 29.71 in 6.2 mi East 4.6 mph - N/A   Scattered Clouds
4:30 PM 91.4 °F 100.1 °F 73.4 °F 55% 29.71 in 6.2 mi ENE 4.6 mph - N/A   Scattered Clouds
5:00 PM 89.6 °F 98.2 °F 73.4 °F 59% 29.71 in 6.2 mi ENE 5.8 mph - N/A   Scattered Clouds
5:30 PM 87.8 °F 97.6 °F 75.2 °F 66% 29.74 in 6.2 mi NNE 4.6 mph - N/A   Scattered Clouds
6:00 PM 87.8 °F 97.6 °F 75.2 °F 66% 29.74 in 5.6 mi Variable 2.3 mph - N/A   Scattered Clouds
6:30 PM 86.0 °F 96.9 °F 77.0 °F 74% 29.74 in 5.6 mi Calm Calm - N/A   Scattered Clouds
7:00 PM 86.0 °F 99.3 °F 78.8 °F 79% 29.77 in 5.6 mi Calm Calm - N/A   Scattered Clouds
7:30 PM 84.2 °F 96.1 °F 78.8 °F 84% 29.77 in 5.6 mi Calm Calm - N/A   Scattered Clouds
8:00 PM 84.2 °F 98.3 °F 80.6 °F 89% 29.80 in 5.6 mi Calm Calm - N/A   Scattered Clouds
8:30 PM 84.2 °F 96.1 °F 78.8 °F 84% 29.80 in 5.6 mi Calm Calm - N/A   Scattered Clouds
9:00 PM 84.2 °F 96.1 °F 78.8 °F 84% 29.80 in 5.6 mi Calm Calm - N/A   Scattered Clouds
9:30 PM 84.2 °F 94.1 °F 77.0 °F 79% 29.83 in 5.6 mi Calm Calm - N/A   Scattered Clouds
10:00 PM 84.2 °F 92.3 °F 75.2 °F 74% 29.83 in 5.6 mi Calm Calm - N/A   Scattered Clouds
10:30 PM 82.4 °F 90.9 °F 77.0 °F 84% 29.83 in 5.6 mi Calm Calm - N/A   Scattered Clouds
11:00 PM 82.4 °F 90.9 °F 77.0 °F 84% 29.80 in 5.6 mi Calm Calm - N/A   Scattered Clouds
11:30 PM 82.4 °F 90.9 °F 77.0 °F 84% 29.80 in 5.6 mi Calm Calm - N/A   Scattered Clouds